Regional Weather Roundup
Issued by NWS

Home | Current Version | Previous Version | Text Only | Print | Product List | Glossary Off
Versions: 1 2 3 4 5 6 7 8 9 10 11 12 13 14 15 16 17 18 19 20 21 22 23 24 25 26 27 28 29 30 31 32 33 34 35 36 37 38 39 40 41 42 43 44 45 46 47 48 49 50

000
ASUS43 KDMX 191807
RWRIA

WEATHER ROUNDUP FOR IOWA
NATIONAL WEATHER SERVICE DES MOINES IA
100 PM CDT FRI SEP 19 2014

NOTE: "FAIR" INDICATES FEW OR NO CLOUDS BELOW 12,000 FEET WITH NO
SIGNIFICANT WEATHER AND/OR OBSTRUCTIONS TO VISIBILITY.

* - THESE STATIONS ARE NOT NWS STATIONS...THUS NOT UNDER NWS
QUALITY CONTROL.  THEY ALSO DO NOT REPORT WEATHER SUCH
AS PRECIPITATION OR FOG.

IAZ001>003-012>014-020>022-031>034-043>046-191900-
   NORTHWEST IOWA

CITY           SKY/WX    TMP DP  RH WIND       PRES   REMARKS
CARROLL *      SUNNY     77  66  69 S16G26    29.87F
CHEROKEE *     SUNNY     78  67  67 S22       29.80F HX  80
DENISON *      SUNNY     75  66  73 S14G26    29.85F
LE MARS *      SUNNY     79  66  65 S23G32    29.77F HX  81
ORANGE CITY *  SUNNY     79  64  61 S23G31    29.76F HX  81
SHELDON *      SUNNY     77  66  69 S23G32    29.74F
SIOUX CITY     SUNNY     81  67  62 S14G24    29.79F HX  83
6HR MIN TEMP:  63; 6HR MAX TEMP:  81;

SPENCER        SUNNY     80  64  58 S24G31    29.77F HX  82
6HR MIN TEMP:  60; 6HR MAX TEMP:  80;

STORM LAKE *   SUNNY     77  68  73 S18G26    29.83F
$$

IAZ055>058-069>071-079>083-090>094-191900-
   SOUTHWEST IOWA

CITY           SKY/WX    TMP DP  RH WIND       PRES   REMARKS
ATLANTIC *     MOSUNNY   73  66  78 S15G24    29.91F
AUDUBON *      SUNNY     75  64  69 S16G26    29.92F
CLARINDA *     CLOUDY    72  64  78 S12G20    29.96F
COUNCIL BLFS * MOSUNNY   75  70  83 S16G22    29.89F
CRESTON *      SUNNY     72  64  78 S15G22    29.96F
HARLAN  *      MOSUNNY   73  66  78 S18       29.93F
LAMONI         MOSUNNY   72  64  76 S10G20    29.99F
6HR MIN TEMP:  56; 6HR MAX TEMP:  72;

RED OAK *      PTSUNNY   72  64  78 S18       29.93F
SHENANDOAH *   PTSUNNY   73  66  78 S13G20    29.94F
$$

IAZ047>049-059>061-072>074-084-191900-
   CENTRAL IOWA

CITY           SKY/WX    TMP DP  RH WIND       PRES   REMARKS
AMES           MOSUNNY   75  63  66 S21       29.92F
6HR MIN TEMP:  53; 6HR MAX TEMP:  75;

ANKENY *       MOSUNNY   75  64  69 S14G24    29.94F
CHARITON *     SUNNY     73  63  68 S17G24    29.99F
DES MOINES     PTSUNNY   77  62  59 S18       29.95F
6HR MIN TEMP:  56; 6HR MAX TEMP:  77;

GRINNELL*      MOSUNNY   73  59  60 S15G24    29.99F
KNOXVILLE *    SUNNY     73  61  64 S17       29.97F
MARSHALLTOWN   MOSUNNY   73  60  63 S20G30    29.95F
6HR MIN TEMP:  51; 6HR MAX TEMP:  74;

PELLA *        MOSUNNY   75  61  61 S15       30.00F
PERRY *          N/A     76  63  64 S17G24    29.92F
$$

IAZ004>006-015-016-023>025-035-036-191900-
   NORTH CENTRAL IOWA

CITY           SKY/WX    TMP DP  RH WIND       PRES   REMARKS
ALGONA *       SUNNY     77  64  65 S25G36    29.81F
CLARION *        N/A     77  63  61 S26G35    29.86F
ESTHERVILLE    SUNNY     77  63  61 S26G39    29.75F
6HR MIN TEMP:  58; 6HR MAX TEMP:  77;

FORT DODGE *   SUNNY     77  63  61 S20G28    29.87F
MASON CITY     SUNNY     76  61  59 S23G38    29.87F
6HR MIN TEMP:  51; 6HR MAX TEMP:  76;

FOREST CITY *  SUNNY     75  61  60 S24G35    29.84F
IOWA FALLS *     N/A     75  61  60 S25G31    29.92F
$$

IAZ007>011-017>019-026>030-037>042-050>054-066-191900-
   NORTHEAST IOWA

CITY           SKY/WX    TMP DP  RH WIND       PRES   REMARKS
CEDAR RAPIDS   MOSUNNY   72  58  61 S16G22    30.01S
6HR MIN TEMP:  51; 6HR MAX TEMP:  73;

CHARLES CITY * SUNNY     72  57  60 S26G33    29.91F
CLINTON *      SUNNY     72  52  49 S16       30.08F
DECORAH *      SUNNY     72  55  56 S15G28    29.93F
DUBUQUE        SUNNY     71  53  52 S21G29    30.02F
6HR MIN TEMP:  50; 6HR MAX TEMP:  71;

MONTICELLO *   SUNNY     73  54  49 S18G28    30.01F
OELWEIN *      SUNNY     72  55  56 S24G31    29.97F
WATERLOO       MOSUNNY   73  58  59 S24G32    29.94F
6HR MIN TEMP:  53; 6HR MAX TEMP:  73;

$$

IAZ064-065-067-068-078-191900-
   EAST CENTRAL IOWA

CITY           SKY/WX    TMP DP  RH WIND       PRES   REMARKS
DAVENPORT      SUNNY     74  52  46 S13G24    30.05F
6HR MIN TEMP:  50; 6HR MAX TEMP:  74;

IOWA CITY      SUNNY     74  57  55 S17G25    30.03F
6HR MIN TEMP:  50; 6HR MAX TEMP:  74;

MT. PLEASANT * SUNNY     75  52  44 SE14      30.05F
MUSCATINE *    SUNNY     75  54  46 S18G25    30.04F
QUAD CITIES    SUNNY     73  52  47 S14       30.05F
6HR MIN TEMP:  47; 6HR MAX TEMP:  73;

$$

IAZ062-063-075>077-085>089-095>099-191900-
   SOUTHEAST IOWA

CITY           SKY/WX    TMP DP  RH WIND       PRES   REMARKS
BURLINGTON     SUNNY     74  56  53 S13       30.05F
6HR MIN TEMP:  50; 6HR MAX TEMP:  74; 6HR PCP: TRACE;

FAIRFIELD *      N/A     73  57  56 S12       30.03F
FORT MADISON * SUNNY     77  54  44 S9G16     30.06F
KEOKUK *       SUNNY     73  57  56 S10       30.05F
OSKALOOSA *      N/A     73  59  63 S20G25    30.01F
CENTERVILLE *  SUNNY     73  63  68 SE14      30.04S
OTTUMWA        MOSUNNY   73  58  59 S15G24    30.00F
6HR MIN TEMP:  52; 6HR MAX TEMP:  73;

WASHINGTON *   SUNNY     75  57  53 S16G23    30.03F
$$

ABBREVIATIONS USED IN REMARKS
   TC - TEMPERATURES IN CELSIUS
  WCI - WIND CHILL INDEX
   HX - HEAT INDEX
  VSB - VISIBILITY
$$




USA.gov is the U.S. government's official web portal to all federal, state and local government web resources and services.